Location: Au
(48.5720°N, 11.1219°E)
Time: 20:36:06
(UTC+00:00)

Daily predictions for brighter satellites

Satellite Brightness Start Highest point End
(mag) Time Altitude Azimuth Time Altitude Azimuth Time Altitude Azimuth
S3M 4.3 19:51:15 10° NNW 19:57:36 73° W 20:03:49 10° S
Cosmos 2266 Rocket 4.3 19:52:24 10° S 19:58:46 82° W 20:05:14 10° N
Cosmos 1455 3.5 19:57:16 10° NNE 20:00:08 23° ENE 20:03:01 10° SE
Spot 2 Rocket 3.9 19:55:47 10° SE 20:00:40 50° ENE 20:05:36 10° N
USA 245 4.0 19:58:20 10° SSE 20:02:30 63° ENE 20:07:42 10° N
Okean O Rocket 3.3 19:59:41 10° SSW 20:03:34 31° W 20:07:28 10° NNW
Cosmos 2228 Rocket 3.2 20:03:09 10° S 20:07:43 88° ESE 20:12:19 10° N
SL-27 R/B 3.5 20:05:19 10° SW 20:07:56 38° WNW 20:10:36 10° N
BREEZE-M DEB (TANK) 3.5 20:04:27 10° WSW 20:08:05 75° SSE 20:21:01 10° ENE
Cosmos 1862 Rocket 3.6 20:04:15 10° S 20:08:37 68° E 20:13:04 10° NNE
Okean 1-7 3.7 20:07:22 10° SSE 20:11:19 36° E 20:15:16 10° NNE
SL-16 R/B 4.1 20:07:20 10° NW 20:11:49 25° WSW 20:16:17 10° SSW
GENESIS II 4.0 20:08:14 10° SSW 20:11:50 63° SE 20:15:26 10° NE
Cosmos 1315 Rocket 3.3 20:10:18 10° SSE 20:14:02 40° E 20:17:48 10° NNE
COSMOS 2455 3.7 20:10:26 10° SSE 20:15:25 28° ESE 20:20:28 10° NE
Cosmos 1346 Rocket 3.3 20:11:44 10° NNW 20:15:31 58° W 20:19:16 10° S
Cosmos 1242 Rocket 3.5 20:13:40 10° SE 20:15:39 18° E 20:17:39 10° NE
Meteor 1-21 4.3 20:11:22 10° S 20:17:10 83° E 20:23:02 10° NNE
SeaSat 1 2.7 20:13:24 10° SE 20:18:13 60° NE 20:23:05 10° NNW
Ariane Rocket 3.1 20:20:51 10° SSE 20:25:55 76° ENE 20:31:02 10° NNW
NOSS 5 (C) 4.2 20:23:13 10° NW 20:26:23 77° NE 20:29:17 12° SE
Cosmos 839 Rocket 4.3 20:20:19 10° NW 20:27:06 67° WSW 20:33:09 10° SSE
Cosmos 1707 Rocket 4.0 20:23:40 10° SSW 20:28:04 66° WNW 20:32:29 10° N
Okean 3 3.4 20:24:19 10° S 20:28:28 88° ESE 20:32:41 10° N
SL-16 R/B 4.5 20:25:51 10° N 20:29:12 16° NE 20:32:33 10° ENE
Cosmos 2333 Rocket 3.4 20:24:09 10° NW 20:29:26 39° WSW 20:34:43 10° S
SL-14 R/B 4.4 20:26:17 10° SSW 20:29:55 44° WNW 20:33:36 10° N
Cosmos 1408 4.4 20:30:13 10° ESE 20:31:22 12° E 20:32:31 10° ENE
SL-4 R/B 1.9 20:28:15 10° WNW 20:32:04 70° SSW 20:35:52 12° ESE
Cosmos 2237 Rocket 3.3 20:27:22 10° NNW 20:32:30 34° NE 20:37:36 10° ESE
CZ-4C R/B 4.5 20:30:48 10° N 20:34:48 48° WNW 20:38:43 10° SW
BlueWalker 3 1.9 20:32:49 10° WSW 20:36:35 85° NNW 20:40:21 10° ENE
Cosmos 968 Rocket 4.4 20:32:01 10° SW 20:37:04 53° WNW 20:42:12 10° NNE
Okean 2 3.3 20:34:45 10° S 20:38:43 68° E 20:42:45 10° NNE
Cosmos 2227 Rocket 4.1 20:37:18 10° ESE 20:39:26 12° E 20:41:34 10° ENE
Cosmos 1733 Rocket 4.3 20:38:14 10° NNW 20:42:23 40° W 20:46:31 10° SSW
Cosmos 2322 3.8 20:39:56 10° NNW 20:45:38 81° WSW 20:50:38 13° SSE
Cosmos 1980 4.5 20:41:34 10° NNW 20:46:59 43° NE 20:51:59 12° ESE
USA 234 3.5 20:42:36 10° ENE 20:48:50 45° SE 20:55:01 10° SSW
Cosmos 2322 Rocket 4.3 20:45:40 10° NW 20:49:39 20° W 20:53:39 10° SW
Cosmos 2297 Rocket 3.0 20:53:48 14° SSE 20:57:57 32° ESE 21:02:54 10° NE
EXPRESS MD2 2.1 20:56:05 10° WNW 20:58:39 73° N 21:00:18 15° E
Cosmos 1908 Rocket 3.7 20:59:05 10° NNW 21:03:25 72° W 21:07:02 14° S
MOS 1 Rocket 4.2 20:58:56 10° S 21:04:08 52° W 21:09:10 10° NNW
Cosmos 2219 Rocket 3.4 21:01:23 10° NW 21:06:28 34° WSW 21:11:32 10° S
NOSS 8 (F) 4.4 21:02:40 10° SW 21:06:39 87° NW 21:09:47 10° NE
Cosmos 1782 Rocket 3.6 21:02:54 10° N 21:07:13 66° ENE 21:10:15 19° SSE
ERS-1 Rocket 4.3 21:04:35 10° SSW 21:09:07 33° W 21:13:40 10° NNW
USA 281 4.0 21:03:53 11° ESE 21:09:49 44° NE 21:15:59 10° NNW
Cosmos 371 Rocket 3.6 21:06:32 14° S 21:10:23 48° ESE 21:15:02 10° NNE
Terra 3.1 21:08:09 10° SSW 21:12:25 34° W 21:16:43 10° NNW
Cosmos 773 Rocket 4.2 21:08:11 10° NNW 21:13:20 63° ENE 21:17:04 19° SE
Cosmos 1300 Rocket 3.6 21:10:00 10° N 21:14:18 65° ENE 21:17:09 21° SSE
MetOp-A 4.1 21:10:24 16° SSE 21:14:35 86° WSW 21:19:47 10° NNW
Cosmos 1703 4.0 21:21:01 23° SE 21:22:35 33° E 21:25:55 10° NNE
ARIANE 5 R/B 3.2 21:19:54 19° SE 21:22:38 45° ENE 21:26:49 10° N
Spot 1 4.4 21:18:20 10° NNE 21:23:03 81° WNW 21:27:59 10° SSW
GP-B 3.1 21:20:01 10° N 21:24:26 75° E 21:27:24 21° S
Cosmos 2084 Rocket 3.4 21:26:12 10° SSW 21:30:27 59° SE 21:34:33 10° NE
NOSS 0 Rocket 4.1 21:24:46 10° NW 21:30:59 68° WSW 21:35:24 20° SSE
Cosmos 1953 3.9 21:29:36 10° NNW 21:32:50 27° W 21:36:00 10° SSW
COSMOS 2428 3.5 21:27:42 10° NW 21:33:06 44° WSW 21:37:11 17° S
Cosmos 1455 3.8 21:31:35 10° NW 21:34:30 25° W 21:37:14 11° SW
CZ-4C R/B 1.8 21:30:31 10° SW 21:35:01 86° SE 21:40:46 10° NE
SJ 16-02 4.1 21:32:15 10° W 21:35:22 19° NW 21:38:31 10° N
BREEZE-M DEB (TANK) 3.9 21:20:18 10° W 21:36:49 83° N 21:40:56 10° E
Cosmos 1745 Rocket 4.1 21:34:05 14° S 21:39:45 85° W 21:46:10 10° N
BREEZE-M DEB (TANK) 3.0 21:39:50 35° S 21:40:15 38° SSE 21:43:38 10° ENE
Cosmos 1777 Rocket 4.2 21:36:58 20° S 21:40:27 54° ESE 21:45:36 10° NNE
Cosmos 304 Rocket 3.7 21:38:33 16° SSW 21:42:17 78° ESE 21:47:04 10° NNE
Nadezhda 1 Rocket 4.3 21:37:33 10° NNW 21:43:45 65° W 21:48:28 17° S
Cosmos 1503 Rocket 4.0 21:45:02 17° SSW 21:49:09 76° ESE 21:54:27 10° NNE
Cosmos 1825 3.6 21:49:46 19° ESE 21:50:25 20° E 21:53:01 10° NE
Cosmos 2151 Rocket 4.3 21:48:07 10° N 21:52:19 42° ENE 21:54:29 24° SE
Cosmos 2098 Rocket 4.0 21:49:10 10° N 21:55:44 73° ENE 21:59:29 24° SSE
SeaSat 1 4.1 21:52:49 13° SSW 21:55:59 23° WSW 21:59:54 10° NW
Okean 2 Rocket 3.8 21:52:59 10° N 21:57:18 44° ENE 21:59:32 25° SE
BREEZE-M R/B 4.2 21:57:09 23° SE 21:58:13 25° SE 22:04:52 10° ENE
H-2A R/B 2.8 21:56:48 27° SE 21:58:56 56° ENE 22:03:02 10° N
MINOTAUR 4 R/B 3.6 21:57:21 10° NNE 22:00:13 55° ESE 22:00:41 48° SE
COSMOS 2455 3.3 21:55:00 10° SW 22:00:57 63° NW 22:06:58 10° NNE
Cosmos 1892 3.5 22:01:06 27° ESE 22:01:53 31° E 22:05:03 10° NNE
CZ-2C R/B 3.6 21:57:58 10° NNE 22:02:25 88° WNW 22:05:08 24° SSW
Cosmos 1408 3.4 22:02:05 19° SW 22:03:42 34° WNW 22:06:29 10° N
Cosmos 332 Rocket 3.9 22:03:50 27° S 22:06:21 59° ESE 22:11:10 10° NNE
ALOS 2 3.3 22:04:51 24° SE 22:07:07 44° ENE 22:11:18 10° N
Cosmos 1174 4.3 22:02:29 10° NW 22:07:09 52° WSW 22:08:42 32° S
Cosmos 405 Rocket 2.6 22:04:41 10° NNW 22:08:29 88° W 22:09:55 36° S
SL-4 R/B 3.7 22:07:37 10° W 22:10:22 18° SW 22:10:36 18° SW
Cosmos 2181 Rocket 4.0 22:04:29 10° N 22:10:40 73° E 22:14:19 26° SSE
SL-16 R/B 2.6 22:08:57 10° NNW 22:14:36 58° ENE 22:18:25 21° SE
BlueWalker 3 3.3 22:11:29 10° WNW 22:15:03 40° N 22:18:37 10° ENE
Meteor 2-5 Rocket 3.8 22:11:12 21° SSW 22:15:13 86° W 22:21:02 10° N
CENTAUR R/B 2.5 22:11:56 22° SSW 22:15:37 58° ESE 22:22:27 10° NE
Cosmos 2237 Rocket 2.7 22:11:19 10° NW 22:16:45 49° WSW 22:19:45 25° S
Spot 4 3.8 22:17:54 30° SSE 22:20:19 83° ENE 22:25:11 10° NNW
Cosmos 2227 Rocket 2.1 22:18:48 23° SSW 22:22:28 74° ESE 22:28:08 10° NNE
Cosmos 2221 Rocket 3.7 22:25:50 34° SSE 22:27:39 64° E 22:32:02 10° NNE
USA 234 3.5 22:25:34 10° NE 22:32:06 73° NNW 22:38:36 10° WSW
H-2A R/B 3.5 22:29:08 10° NE 22:32:21 21° E 22:33:24 19° ESE
Sich 1 Rocket 3.5 22:28:46 10° N 22:33:10 84° W 22:34:57 35° S
Cosmos 1354 Rocket 4.4 22:31:07 16° SW 22:35:18 63° WNW 22:40:34 10° NNE
Okean 1 Rocket 3.1 22:34:48 10° N 22:39:11 74° ENE 22:40:58 35° SSE
Cosmos 2297 Rocket 3.1 22:36:21 10° SW 22:41:48 48° NW 22:47:17 10° NNE
Cosmos 1461 3.4 22:43:12 34° SE 22:43:31 34° ESE 22:47:04 10° NE
Nadezhda 3 Rocket 4.1 22:42:10 10° N 22:48:24 67° ENE 22:51:56 27° SSE
Cosmos 990 Rocket 3.9 22:45:53 30° SSW 22:48:29 81° ESE 22:53:38 10° NNE
Cosmos 967 Rocket 4.5 22:49:00 24° SSW 22:53:07 72° ESE 22:59:34 10° NE
USA 281 3.7 22:50:46 25° SSW 22:54:17 47° WSW 23:00:37 10° NW
Cosmos 2219 3.1 22:51:47 29° SSW 22:54:45 74° ESE 23:00:23 10° NNE
Cosmos 1680 Rocket 4.4 22:52:42 10° NNW 22:57:41 44° ENE 23:01:20 17° SE
ARIANE 5 R/B 4.4 22:57:21 16° SW 22:59:15 21° W 23:02:36 10° NW
Cosmos 1975 Rocket 4.1 22:59:41 27° SE 23:01:12 35° E 23:05:14 10° NNE
Cosmos 1025 Rocket 3.1 23:00:15 38° SSE 23:01:45 67° E 23:06:01 10° NNE
Cosmos 2184 Rocket 4.0 22:59:56 27° SSW 23:03:39 84° W 23:10:05 10° N
Cosmos 2263 Rocket 2.2 23:01:07 31° S 23:03:43 63° ESE 23:09:14 10° NNE
Orbus 7S? 4.0 23:01:30 10° NW 23:04:03 37° NNE 23:06:58 10° E
Cosmos 1455 Rocket 3.2 23:05:02 10° N 23:09:28 66° E 23:11:17 34° SSE
Cosmos 372 Rocket 4.3 23:10:27 32° SSE 23:12:34 53° ESE 23:17:38 10° NNE
Cosmos 292 Rocket 3.7 23:17:32 33° SSW 23:19:44 88° WNW 23:24:35 10° NNE
Cosmos 1844 Rocket 4.4 23:18:48 16° SE 23:21:02 20° E 23:24:54 10° NE
Cosmos 2154 Rocket 4.1 23:18:32 27° SSW 23:22:08 76° W 23:28:28 10° N
NOSS 3-2 (A) 3.2 23:18:38 22° SW 23:22:14 84° NW 23:28:34 10° NE
CZ-4C R/B 4.2 23:19:51 10° W 23:24:14 28° NNW 23:29:35 10° NE
Cosmos 1825 3.5 23:23:13 21° WSW 23:24:27 27° WNW 23:27:24 10° NNW
PSLV R/B 3.7 23:24:58 10° N 23:29:07 64° WNW 23:30:49 34° SW
NOSS 3-2 (C) 3.3 23:30:22 32° S 23:32:46 59° ESE 23:38:50 10° NE
Cosmos 1818 3.7 23:28:41 10° NW 23:34:04 57° WSW 23:36:28 31° S
H-2A R/B 4.5 23:32:47 15° WSW 23:34:10 17° W 23:36:54 10° NW
Cosmos 2228 4.2 23:33:07 10° N 23:37:08 36° ENE 23:39:32 20° SE
Meteor 1-21 Rocket 4.3 23:34:06 29° SSW 23:37:08 76° WNW 23:42:47 10° N
Resurs 1-4 Rocket 4.5 23:41:46 10° ENE 23:43:38 12° E 23:45:30 10° ESE
ALOS 2 4.2 23:42:15 19° WSW 23:43:39 22° W 23:47:04 10° NW
In-Cosmos 22 Rocket 4.3 23:41:13 30° S 23:44:16 86° E 23:50:08 10° NNE
Cosmos 1607 4.5 23:39:42 10° NW 23:46:05 60° NE 23:52:20 10° SE
Cosmos 1869 3.2 23:44:16 10° N 23:47:58 70° E 23:49:12 39° SSE
Aureole 1 Rocket 3.9 23:48:39 24° WSW 23:50:52 46° WNW 23:55:47 10° NNE
Cosmos 1937 Rocket 3.5 23:48:31 30° SSW 23:51:10 87° WNW 23:56:26 10° NNE
BlueWalker 3 2.7 23:50:01 10° WNW 23:53:41 51° NNE 23:57:20 10° E
